Terug naar catalogus

THORAD DELTA 1 DEB

ActiefSSO
NORAD 8185·DEBRIS·🇺🇸 United States

Gelanceerd Nov 15, 1974 vanaf Vandenberg Space Force Base

Loading…

Volgende Passages (komende 24 uur)

TLE

VersSource: Space-Track

Epoch: Sep 14, 2026, 06:10 UTC

1 08185U 74089BB  26257.25746544 -.00000005  00000-0  27507-3 0  9999
2 08185 101.5308 172.3906 0070057 346.3107 168.6984 12.40526116345803

Volg THORAD DELTA 1 DEB in realtime met AllMySat

Download on the App Store